Skip Page Navigation
NASA JPL Caltech
NASA Logo - Jet Propulsion Laboratory + View the NASA Portal
+ Near-Earth Object (NEO) Program
Search JPL
JPL Home Earth Solar System Stars & Galaxies Technology
JPL Solar System Dynamics
BODIES ORBITS EPHEMERIDES TOOLS PHYSICAL DATA DISCOVERY FAQ SITE MAP
JPL Small-Body Database Browser
Search: [ help ]  
162998 (2001 SK162)
Classification: Apollo [NEO, PHA]          SPK-ID: 2162998
Ephemeris | Orbit Diagram | Orbital Elements | Physical Parameters | Discovery Circumstances | Close-Approach Data ]

[ hide orbit diagram ]
Orbit Diagram
Note: Make sure you have Java enabled on your browser to see the applet. This applet is provided as a 3D orbit visualization tool. The applet was implemented using 2-body methods, and hence should not be used for determining accurate long-term trajectories (over several years or decades) or planetary encounter circumstances. For accurate long-term ephemerides, please instead use our Horizons system.
Orbit Viewer

Additional Notes: the orbits shown in the applet are color coded. The planets are white lines, and the asteroid/comet is a blue line. The bright white line indicates the portion of the orbit that is above the ecliptic plane, and the darker portion is below the ecliptic plane. Likewise for the asteroid/comet orbit, the light blue indicates the portion above the ecliptic plane, and the dark blue the portion below the ecliptic plane.

Orbit Viewer applet originally written and kindly provided by Osamu Ajiki (AstroArts), and further modified by Ron Baalke (JPL).


Orbital Elements at Epoch 2456400.5 (2013-Apr-18.0) TDB
Reference: JPL 80 (heliocentric ecliptic J2000)
 Element Value Uncertainty (1-sigma)   Units 
e .4740223235287568 3.8999e-08  
a 1.925768513435932 4.1466e-09 AU
q 1.012911248118512 7.5396e-08 AU
i 1.679237713252803 3.3055e-06 deg
node 285.4998449929554 0.00012999 deg
peri 186.225526337863 0.00012911 deg
M 72.58245444292356 6.4254e-06 deg
tp 2456203.696100763379
(2012-Oct-03.19610076)
1.7081e-05 JED
period 976.1230075361721
2.67
3.1527e-06
8.632e-09
d
yr
n .3688059775464923 1.1912e-09 deg/d
Q 2.838625778753353 6.1122e-09 AU
  Orbit Determination Parameters
   # obs. used (total)      847  
   data-arc span      7165 days (19.62 yr)  
   first obs. used      1993-10-09  
   last obs. used      2013-05-22  
   planetary ephem.      DE405  
   SB-pert. ephem.      SB405-CPV-2  
   condition code      0  
   fit RMS      .44184  
   data source      ORB  
   producer      Otto Matic  
   solution date      2013-May-23 01:16:17  

Additional Information
 Earth MOID = .0291563 AU 
 T_jup = 3.773 
[ show covariance matrix ]

Ephemeris | Orbit Diagram | Orbital Elements | Physical Parameters | Discovery Circumstances | Close-Approach Data ]

Physical Parameter Table
Parameter Symbol Value Units Sigma Reference Notes
absolute magnitude H 17.805 mag .51203 80 autocmod 2.5c
rotation period rot_per 68. h n/a Asteroid Lightcurve DataBase (Rev. 2013-May-01) Incomplete or inconclusive result.
Published Reference List:
[Pravec, P.; Wolf, M.; Sarounova, L. (2002) http://www.asu.cas.cz/~ppravec/neo.htm]
SMASSII spectral type spec_B T   n/a Binzel et al. (2004) Meteorit. Planet. Sci. 39, 351-366  

162998 (2001 SK162)          Discovered 2001-Sep-17 by LINEAR at Socorro (704)
Reference: 20070926/Numbers.arcLast Updated: 2007-09-30

[ show close-approach data ]
Ephemeris | Orbit Diagram | Orbital Elements | Physical Parameters | Discovery Circumstances | Close-Approach Data ]
ABOUT SSD CREDITS/AWARDS PRIVACY/COPYRIGHT GLOSSARY LINKS
FirstGov 2013-May-25 15:21 UT
(server date/time)  
NASA Home Page
Site Manager:   Donald K. Yeomans
Webmaster  Alan B. Chamberlin